User: anonymous   Login
Location: Newark
(49.3000°N, 9.4667°E)
Time: 16:24:13
(UTC+00:00)
Language:

Transit 4A - Orbit

View from above orbital plane
View from above orbital plane
View from above satellite
View from above satellite

Ground track
Ground track

The orbit data is extracted from the following two-line orbital elements,

1   116U 61015A   19140.31293252 -.00000046  00000-0  24136-4 0  9994
2   116  66.8097  91.7203 0082700 284.0122  75.1773 13.91752542937451
Epoch (UTC): 20 May 2019 07:30:37
Eccentricity: 0.0082700
inclination: 66.8097°
perigee height: 862 km
apogee height: 983 km
right ascension of ascending node: 91.7203°
argument of perigee: 284.0122°
revolutions per day: 13.91752542
mean anomaly at epoch: 75.1773°
orbit number at epoch: 93745

The dashed part of the orbit path shows where the satellite is in the earth's shadow,  

DLR